Date String (YYYY-MM-DD hh:mm:ss) UTC,Instrument flags,Ambient pressure (hPa),Sample flow (lpm),Bypass flow (lpm),Sample temperature (°C),Ambient temperature (°C),ASC tube jacket temperature (°C),LED temperature (°C),Box temperature (°C),Sample RH (%),Span deviation,Mass concentration (μg/m³),Mass concentration (μg/m³),Mass concentration (μg/m³)
DateTimeUTC,F1_M11,P_M11,Q1_M11,Q2_M11,T1_M11,T2_M11,T3_M11,T4_M11,T5_M11,U1_M11,ZSPAN_M11,X2_M11,X0_M11,X1_M11
2022-04-11 15:00:00,,0816.4,5.00,0.00,21.9,21.1,00.0,31.0,23.6,07.9,0000.0,0003.61,0010.27,0002.18
2022-04-11 15:01:00,,0816.4,5.00,0.00,21.9,21.2,00.0,31.0,23.6,08.1,0000.0,0003.60,0010.20,0002.19
2022-04-11 15:02:00,,0816.4,5.00,0.00,21.9,21.2,00.0,31.0,23.7,07.9,0000.0,0003.54,0010.06,0002.18
2022-04-11 15:03:00,,0816.4,5.00,0.00,22.0,21.3,00.0,31.0,23.7,08.2,0000.0,0003.55,0010.01,0002.17
2022-04-11 15:04:00,,0816.4,5.00,0.00,22.0,21.3,00.0,31.0,23.7,08.3,0000.0,0003.53,0009.37,0002.17
2022-04-11 15:05:00,,0816.5,5.00,0.00,22.0,21.3,00.0,31.0,23.8,07.7,0000.0,0003.54,0009.18,0002.16
2022-04-11 15:06:00,,0816.5,5.00,0.00,22.0,21.3,00.0,31.0,23.8,07.7,0000.0,0003.53,0008.66,0002.13
2022-04-11 15:07:00,,0816.5,5.01,0.00,22.0,21.4,00.0,31.0,23.8,07.9,0000.0,0003.58,0010.83,0002.12
2022-04-11 15:08:00,,0816.5,5.00,0.00,22.1,21.4,00.0,31.0,23.9,07.9,0000.0,0003.66,0011.25,0002.11
2022-04-11 15:09:00,,0816.4,4.99,0.00,22.1,21.4,00.0,31.0,23.9,07.5,0000.0,0003.63,0011.66,0002.09
2022-04-11 15:10:00,,0816.4,5.00,0.00,22.1,21.5,00.0,31.0,23.9,07.5,0000.0,0003.69,0012.07,0002.07
2022-04-11 15:11:00,,0816.4,5.00,0.00,22.2,21.5,00.0,31.0,24.0,07.4,0000.0,0003.77,0012.90,0002.09
2022-04-11 15:12:00,,0816.4,5.00,0.00,22.2,21.5,00.0,31.0,24.0,07.6,0000.0,0003.76,0012.98,0002.10
2022-04-11 15:13:00,,0816.4,5.00,0.00,22.2,21.5,00.0,31.1,24.0,07.7,0000.0,0003.78,0013.27,0002.12
2022-04-11 15:14:00,,0816.3,5.00,0.00,22.2,21.5,00.0,31.1,24.0,07.8,0000.0,0003.84,0013.51,0002.14
2022-04-11 15:15:00,,0816.3,5.00,0.00,22.2,21.5,00.0,31.1,24.0,07.9,0000.0,0003.92,0013.97,0002.13
2022-04-11 15:16:00,,0816.3,5.00,0.00,22.2,21.5,00.0,31.1,24.0,07.6,0000.0,0003.94,0014.57,0002.15
2022-04-11 15:17:00,,0816.4,4.99,0.00,22.2,21.5,00.0,31.1,24.0,07.7,0000.0,0003.97,0014.76,0002.18
2022-04-11 15:18:00,,0816.4,5.02,0.00,22.2,21.5,00.0,31.1,24.0,08.5,0000.0,0003.92,0013.08,0002.21
2022-04-11 15:19:00,,0816.4,5.00,0.00,22.2,21.6,00.0,31.1,24.0,08.8,0000.0,0003.93,0012.55,0002.23
2022-04-11 15:20:00,,0816.4,5.00,0.00,22.3,21.6,00.0,31.1,24.1,08.4,0000.0,0003.91,0011.83,0002.25
2022-04-11 15:21:00,,0816.4,5.00,0.00,22.3,21.6,00.0,31.1,24.1,08.0,0000.0,0003.92,0011.40,0002.28
2022-04-11 15:22:00,,0816.4,4.99,0.00,22.3,21.6,00.0,31.1,24.1,07.8,0000.0,0003.87,0010.51,0002.30
2022-04-11 15:23:00,,0816.4,5.00,0.00,22.3,21.6,00.0,31.1,24.1,07.9,0000.0,0003.87,0010.47,0002.31
2022-04-11 15:24:00,,0816.3,5.01,0.00,22.3,21.6,00.0,31.2,24.1,08.0,0000.0,0003.91,0010.30,0002.32
2022-04-11 15:25:00,,0816.3,4.99,0.00,22.3,21.6,00.0,31.2,24.1,08.5,0000.0,0003.90,0010.08,0002.31
2022-04-11 15:26:00,,0816.3,4.99,0.00,22.3,21.6,00.0,31.2,24.1,08.9,0000.0,0003.83,0010.19,0002.32
2022-04-11 15:27:00,,0816.2,4.99,0.00,22.3,21.6,00.0,31.2,24.1,09.1,0000.0,0003.78,0010.19,0002.32
2022-04-11 15:28:00,,0816.2,5.01,0.00,22.3,21.6,00.0,31.2,24.1,09.4,0000.0,0003.75,0010.52,0002.30
2022-04-11 15:29:00,,0816.2,5.00,0.00,22.3,21.5,00.0,31.2,24.1,09.2,0000.0,0003.77,0010.75,0002.29
2022-04-11 15:30:00,,0816.2,5.00,0.00,22.3,21.5,00.0,31.2,24.1,09.4,0000.0,0003.77,0010.63,0002.28
2022-04-11 15:31:00,,0816.2,5.00,0.00,22.3,21.5,00.0,31.2,24.0,09.4,0000.0,0003.78,0010.60,0002.29
2022-04-11 15:32:00,,0816.2,5.00,0.00,22.2,21.5,00.0,31.2,24.0,09.2,0000.0,0003.76,0010.77,0002.31
2022-04-11 15:33:00,,0816.1,5.00,0.00,22.3,21.5,00.0,31.2,24.1,09.4,0000.0,0003.72,0010.88,0002.31
2022-04-11 15:34:00,,0816.1,4.99,0.00,22.3,21.5,00.0,31.2,24.1,09.4,0000.0,0003.70,0010.77,0002.30
2022-04-11 15:35:00,,0816.1,5.01,0.00,22.3,21.5,00.0,31.2,24.1,09.1,0000.0,0003.71,0010.83,0002.31
2022-04-11 15:36:00,,0816.2,4.99,0.00,22.3,21.6,00.0,31.2,24.1,09.3,0000.0,0003.71,0011.05,0002.32
2022-04-11 15:37:00,,0816.2,5.01,0.00,22.3,21.6,00.0,31.2,24.1,09.3,0000.0,0003.69,0011.28,0002.32
2022-04-11 15:38:00,,0816.2,5.01,0.00,22.3,21.6,00.0,31.2,24.1,09.4,0000.0,0003.73,0011.17,0002.34
2022-04-11 15:39:00,,0816.2,5.00,0.00,22.3,21.6,00.0,31.2,24.1,09.4,0000.0,0003.76,0010.66,0002.36
2022-04-11 15:40:00,,0816.2,5.00,0.00,22.3,21.7,00.0,31.2,24.1,09.3,0000.0,0003.74,0011.02,0002.38
2022-04-11 15:41:00,,0816.2,4.99,0.00,22.4,21.7,00.0,31.3,24.2,09.3,0000.0,0003.70,0010.62,0002.40
2022-04-11 15:42:00,,0816.2,5.00,0.00,22.4,21.7,00.0,31.3,24.2,09.3,0000.0,0003.71,0010.64,0002.41
2022-04-11 15:43:00,,0816.2,5.01,0.00,22.4,21.6,00.0,31.3,24.2,09.2,0000.0,0003.69,0010.54,0002.40
2022-04-11 15:44:00,,0816.1,5.00,0.00,22.3,21.6,00.0,31.3,24.1,08.9,0000.0,0003.71,0010.24,0002.41
2022-04-11 15:45:00,,0816.1,5.00,0.00,22.3,21.6,00.0,31.3,24.2,09.0,0000.0,0003.73,0010.78,0002.44
2022-04-11 15:46:00,,0816.1,5.00,0.00,22.4,21.6,00.0,31.3,24.2,08.9,0000.0,0003.71,0011.12,0002.45
2022-04-11 15:47:00,,0816.1,5.00,0.00,22.4,21.7,00.0,31.3,24.2,08.9,0000.0,0003.67,0010.86,0002.45
2022-04-11 15:48:00,,0816.2,5.00,0.00,22.4,21.7,00.0,31.3,24.2,09.0,0000.0,0003.71,0010.59,0002.47
2022-04-11 15:49:00,,0816.0,5.00,0.00,22.4,21.7,00.0,31.3,24.2,09.1,0000.0,0003.71,0010.44,0002.48
2022-04-11 15:50:00,,0816.1,5.00,0.00,22.4,21.7,00.0,31.3,24.2,09.2,0000.0,0003.70,0010.58,0002.49
2022-04-11 15:51:00,,0816.1,5.00,0.00,22.4,21.7,00.0,31.3,24.2,09.0,0000.0,0003.76,0010.01,0002.50
2022-04-11 15:52:00,,0816.2,4.99,0.00,22.4,21.7,00.0,31.3,24.3,09.2,0000.0,0003.79,0010.09,0002.52
2022-04-11 15:53:00,,0816.2,5.00,0.00,22.4,21.7,00.0,31.3,24.2,09.1,0000.0,0003.80,0010.18,0002.53
2022-04-11 15:54:00,,0816.0,5.00,0.00,22.4,21.7,00.0,31.3,24.3,09.2,0000.0,0003.84,0010.64,0002.55
2022-04-11 15:55:00,,0816.0,5.00,0.00,22.5,21.7,00.0,31.3,24.3,09.0,0000.0,0003.88,0010.81,0002.56
2022-04-11 15:56:00,,0816.0,5.00,0.00,22.5,21.8,00.0,31.3,24.3,09.1,0000.0,0003.87,0010.52,0002.56
2022-04-11 15:57:00,,0816.0,5.00,0.00,22.5,21.8,00.0,31.3,24.3,09.0,0000.0,0003.85,0010.43,0002.55
2022-04-11 15:58:00,,0816.0,5.00,0.00,22.5,21.8,00.0,31.4,24.3,08.9,0000.0,0003.90,0010.46,0002.56
2022-04-11 15:59:00,,0815.9,5.00,0.00,22.5,21.8,00.0,31.4,24.4,08.9,0000.0,0003.93,0010.38,0002.57
